Jacob Spencer

Chefscout - Notts County
3 Apr 2027
Samstag
Verarbeitung

Persönlichkeit

Anpassungsfähigkeit (10) Ehrgeiz (9) Kontroverse (4) Loyalität (2) Druck (12) Professionalität (3) Fairness (18) Temperament (19)

Profil

Trainerstil Demokratisch
Lizenz Nationale A
Entschlossenheit 4
Menschenführung 10
Motivation 10
Disziplin 7
Arbeitszufriedenheit
75%
Ermüdung
0%
Rolle Chefscout
Gehalt 69.7K p/W
Vertrag 14.03.2029

Leistung

Verhalten Gut
Trainingseffektivität
28%
Spielerentwicklung
40%
Verletzungsprävention
55%
Taktische Umsetzung
50%

Letzte Ereignisse

Nahm an einer Scouting-Besprechung teil 7T her
Nahm an einer Scouting-Besprechung teil 14T her
Nahm an einer Scouting-Besprechung teil 21T her
Nahm an einer Scouting-Besprechung teil 28T her
Nahm an einer Scouting-Besprechung teil 35T her
Nahm an einer Scouting-Besprechung teil 42T her
Nahm an einer Scouting-Besprechung teil 49T her
Nahm an einer Scouting-Besprechung teil 56T her

Aktuell beobachtet

110
Spieler Verein Status Fähigkeit Vertrauen Beobachtet Zuletzt beobachtet Letzte Stimme
Oto John CR Belouizdad Aktiv 101 / 120 40% 2 22.01.2027 -
Danila Shilov Dinamo Stavropol Aktiv 94 / 92 40% 1 22.01.2027 -
Andrii Khoma Chornomorets Aktiv 86 / 93 40% 2 21.01.2027 -
Gustavo Rigazzi Metalist Aktiv 76 / 98 40% 1 20.01.2027 -
Daniil Agureev Amkar Aktiv 89 / 71 40% 1 20.01.2027 -
Sam Nombe Milton Keynes Dons Aktiv 97 / 109 40% 1 19.01.2027 -
Franklin Sasere Birkirkara Aktiv 93 / 84 40% 5 16.01.2027 -
Anthony Lokosa Tarxien Rainbows Aktiv 106 / 99 40% 2 15.01.2027 -
Antony Medrano Dobrudzha Aktiv 95 / 102 40% 1 15.01.2027 -
Moses Twum Haras El Hodoud Aktiv 118 / 117 40% 1 13.01.2027 -
Stanislav Biblyk Chaika Aktiv 83 / 108 40% 1 13.01.2027 -
Dominik Kocsis Debrecen Aktiv 123 / 122 40% 1 12.01.2027 -
Albek Gongapshev Shinnik Aktiv 83 / 85 40% 1 12.01.2027 -
Václav Sejk Sigma Olomouc Aktiv 109 / 127 40% 2 11.01.2027 -
Stephen Humphrys Bradford City Aktiv 107 / 99 40% 1 11.01.2027 -
Patrick Schmidt Tarxien Rainbows Aktiv 99 / 112 40% 1 09.01.2027 -
Alexandr Dolgov Amkar Aktiv 97 / 95 40% 4 08.01.2027 -
Lucio Garberi Lokomotiv Plovdiv Aktiv 114 / 113 40% 1 08.01.2027 -
Beryly Lubala CSKA 1948 Aktiv 116 / 105 40% 4 04.01.2027 -
Ilja Gruznov Khimik Aktiv 73 / 94 40% 1 04.01.2027 -
Guillermo Bassi Lokomotiv Plovdiv Aktiv 82 / 108 40% 1 03.01.2027 -
Lewis McCann Fleetwood Town Aktiv 110 / 107 40% 2 01.01.2027 -
Khaled Al-Nabris Ismaily Aktiv 84 / 87 40% 1 01.01.2027 -
Yeangel Montero Naxxar Lions Aktiv 106 / 108 40% 2 31.12.2026 -
Marcus Browne AFC Wimbledon Abgelehnt 97 / 113 40% 1 31.12.2026 Mehr Infos nötig
Denys Rezepov Nyva Aktiv 90 / 95 40% 1 29.12.2026 -
Oleh Kozhushko Bukovyna Aktiv 107 / 114 40% 1 29.12.2026 -
Chukwuemeka Obioma Abia Warriors Aktiv 90 / 99 40% 1 27.12.2026 -
Ilja Safronov Rotor Aktiv 90 / 105 40% 1 27.12.2026 -
Yefrín Castillo Lokomotiv Plovdiv Aktiv 74 / 82 40% 1 25.12.2026 -
José Bica Leixões Aktiv 97 / 111 40% 1 25.12.2026 -
Suleiman Abdullahi Military Production Aktiv 96 / 102 40% 4 23.12.2026 -
Jack Vale Alcione Milano Aktiv 89 / 102 40% 2 23.12.2026 -
Samson Olasupo Remo Stars Aktiv 84 / 101 40% 3 22.12.2026 -
Samuel Amoah Liberty Professionals Aktiv 85 / 92 40% 2 20.12.2026 -
Simone Ianesi Pianese Aktiv 99 / 99 40% 1 20.12.2026 -
Georg Stojanovski Spartak 1918 Aktiv 90 / 113 40% 1 19.12.2026 -
Badr Mousa Petrojet Aktiv 114 / 101 40% 1 19.12.2026 -
Mésaque Djú Portimonense Aktiv 115 / 96 40% 1 16.12.2026 -
Thiago Calone All Boys Aktiv 114 / 128 40% 1 14.12.2026 -
Sebastian Soto ES Ben Aknoun Verloren 79 / 87 40% 4 08.12.2026 -
Basil Mphahlele Jomo Cosmos Aktiv 110 / 99 40% 2 08.12.2026 -
Lucas González Estudiantes Aktiv 120 / 111 40% 1 08.12.2026 Mehr Infos nötig
Hernán Luna NK Domzale Aktiv 106 / 104 40% 2 06.12.2026 -
Louis Appéré Cambridge United Aktiv 85 / 89 40% 1 05.12.2026 -
Lucio Castillo Colegiales Aktiv 95 / 121 40% 1 03.12.2026 -
Ezequiel Almirón Estudiantes Aktiv 132 / 98 40% 2 02.12.2026 -
Lazar Mijović Cukaricki Aktiv 92 / 118 40% 2 02.12.2026 -
Marcelo Torres Gimnasia La Plata Aktiv 127 / 133 40% 1 01.12.2026 -
Fortune Bassey Rivers United Aktiv 91 / 92 40% 3 30.11.2026 -
Wladimir Cid NK Zavrc Aktiv 96 / 93 40% 2 27.11.2026 -
Chisom Orji Warri Wolves Aktiv 81 / 82 40% 1 27.11.2026 -
Naledi Hlongwane Victoria United Aktiv 102 / 87 40% 2 25.11.2026 -
Abubakar Garba Nasarawa United Aktiv 88 / 85 40% 1 24.11.2026 -
Luís Mota Zabbar St. Patrick Aktiv 79 / 82 40% 2 23.11.2026 -
Diamanka Senghor Mosta Aktiv 87 / 90 40% 2 23.11.2026 -
Bautista Arricau OB Aktiv 87 / 112 40% 1 22.11.2026 -
Ivo Costantino Danubio Aktiv 111 / 124 40% 3 20.11.2026 -
Timothy Zechariah Rivers United Aktiv 104 / 97 40% 1 20.11.2026 -
Robert Mizo Remo Stars Aktiv 99 / 108 40% 1 19.11.2026 -
Lazar Tufegdžić Cukaricki Aktiv 94 / 94 40% 1 17.11.2026 -
Abdulmajid Aminu Barau Aktiv 93 / 89 40% 3 16.11.2026 -
Denys Ustymenko Obolon Aktiv 102 / 104 40% 1 16.11.2026 -
Sory Diarra Haugesund Aktiv 92 / 89 40% 1 13.11.2026 -
Nikolaj Möller Sandefjord Aktiv 101 / 120 40% 1 06.11.2026 -
Solly Khunyedi Bloemfontein Celtic Aktiv 106 / 102 40% 1 06.11.2026 -
Alen Kurtalić Floriana Aktiv 109 / 106 40% 2 03.11.2026 -
Jurica Poldrugač Rudes Aktiv 81 / 113 40% 1 03.11.2026 -
Stuart Hawkins Seattle Sounders Aktiv 94 / 100 40% 1 03.11.2026 -
Michal Fukala Zlin Aktiv 130 / 121 40% 1 02.11.2026 -
Maclyn Biokpo Jenewari Rivers United Aktiv 103 / 102 40% 3 31.10.2026 -
Seidu Basit Ashanti Gold Aktiv 84 / 99 40% 1 27.10.2026 -
Magnus Lankhof Dahlby Stabaek Aktiv 115 / 106 40% 1 25.10.2026 -
Renzo Reynaga Patronato Aktiv 93 / 111 40% 1 24.10.2026 -
Rafael Mosquera New York Red Bulls Aktiv 102 / 111 40% 1 24.10.2026 -
Bruno Zdunić Dugopolje Aktiv 109 / 85 40% 1 23.10.2026 -
Brendan McSorley St. Louis CITY SC Aktiv 87 / 88 40% 1 22.10.2026 -
Vinicius Baiano Naxxar Lions Aktiv 88 / 88 40% 1 22.10.2026 -
Facundo de León Progreso Aktiv 91 / 121 40% 1 21.10.2026 -
Carlos Gugenheim Almirante Brown Aktiv 115 / 96 40% 1 20.10.2026 -
Agustín Paz Progreso Aktiv 132 / 124 40% 1 15.10.2026 -
Ismail Sarki Niger Tornadoes Aktiv 92 / 89 40% 2 12.10.2026 -
Arthur Read Jablonec Aktiv 118 / 117 40% 1 11.10.2026 -
Johnson Amuzu Berekum Chelsea Aktiv 78 / 82 40% 1 11.10.2026 -
Fernando Mimbacas Juventud Aktiv 129 / 104 40% 2 10.10.2026 -
Dylan Teves Austin FC Aktiv 91 / 108 40% 1 10.10.2026 -
Jeremy Rafanello Philadelphia Union Aktiv 118 / 107 40% 1 09.10.2026 -
Joseph Atule Barau Aktiv 83 / 90 40% 2 06.10.2026 -
George Lloyd Grodig Aktiv 89 / 95 40% 1 05.10.2026 -
Oke Kayode Bendel Insurance Aktiv 81 / 101 40% 1 05.10.2026 -
Juan Yangali San Telmo Aktiv 112 / 96 40% 1 05.10.2026 -
Rashid Abubakar Berekum Chelsea Aktiv 97 / 95 40% 1 05.10.2026 -
Franco García Colón Aktiv 100 / 98 40% 1 03.10.2026 -
Lautaro Gordillo Colegiales Aktiv 108 / 117 40% 2 02.10.2026 -
Ramiro Ruiz Rodríguez Atlético Tucumán Aktiv 100 / 134 40% 2 30.09.2026 -
Oladimeji Dada Ikorodu City Aktiv 92 / 84 40% 1 26.09.2026 -
Enzo González Defensores Aktiv 99 / 87 40% 3 23.09.2026 -
Kimani Stewart-Baynes Colorado Rapids Aktiv 82 / 81 40% 1 23.09.2026 -
Hlompho Modiba Black Aces Aktiv 83 / 83 40% 1 17.09.2026 -
Amos Inusah Wa All Stars Aktiv 101 / 116 40% 1 16.09.2026 -
Matty Longstaff CF Montreal Aktiv 90 / 106 40% 1 15.09.2026 -
Alpha Onyango Gor Mahia Aktiv 109 / 108 40% 1 15.09.2026 -
Sibusiso Tshabalala Polokwane City Aktiv 70 / 73 40% 1 15.09.2026 -
Bautista Tomatis Racing Aktiv 88 / 119 40% 1 14.09.2026 -
Derrick Otanga Kakamega Homeboyz Aktiv 106 / 92 40% 1 11.09.2026 -
Ben Elliott Arab Contractors Aktiv 97 / 99 40% 1 11.09.2026 -
Fredy Martínez Boston River Aktiv 93 / 100 40% 1 11.09.2026 -
Benard Mundi Ikorodu City Aktiv 80 / 93 40% 1 09.09.2026 -
Valentín Quevedo Colegiales Aktiv 99 / 93 40% 1 08.09.2026 -
Ibrahim Aliyu Houston Dynamo Aktiv 119 / 100 40% 1 08.09.2026 -